This demonstration page uses our WeatherBlox Daily Observations layout. Learn more.

Left ArrowRight Arrow

Hourly Observations for July 7, 2016

Temp ( °F °C ) Dew Point ( °F °C ) Humidity (%) Winds ( mph kmh ) Pressure ( in mb ) Visibility ( mi km ) Precip ( " mm )
12:15 am 00:15 Partly Cloudy with Nearby Thunderstorms 69 20.8 61 16.1 75 75 N 5 7 29.68 1005 10 16 N/A
12:35 am 00:35 Partly Cloudy 68 20.2 61 16.3 78 78 NE 15 24 29.65 1004 10 16 N/A
12:55 am 00:55 Clear 68 20.2 57 14.1 68 68 ENE 14 22 29.62 1003 10 16 N/A
1:15 am 01:15 Clear 67 19.5 58 14.5 73 73 ENE 12 19 29.62 1003 10 16 N/A
1:35 am 01:35 Clear 67 19.6 59 14.8 74 74 ENE 10 17 29.62 1003 10 16 N/A
1:55 am 01:55 Clear 66 18.9 60 15.4 80 80 ENE 6 9 29.62 1003 10 16 N/A
2:15 am 02:15 Clear with Nearby Thunderstorms 66 18.7 61 15.9 84 84 N N/A 29.65 1004 10 16 N/A
2:35 am 02:35 Clear with Nearby Thunderstorms 65 18.5 62 16.4 88 88 N 5 7 29.62 1003 10 16 N/A
2:55 am 02:55 Clear 65 18.4 62 16.6 89 89 N 7 11 29.62 1003 10 16 N/A
3:15 am 03:15 Clear 65 18.5 62 16.6 89 89 NE 7 11 29.62 1003 10 16 N/A
3:35 am 03:35 Clear 67 19.2 63 17 87 87 ENE 8 13 29.65 1004 10 16 N/A
3:55 am 03:55 Clear 67 19.5 62 16.5 83 83 E 13 20 29.65 1004 10 16 N/A
4:15 am 04:15 Clear 67 19.5 61 16.1 81 81 E 13 20 29.62 1003 10 16 N/A
4:35 am 04:35 Clear 68 20 61 16 78 78 E 10 17 29.65 1004 10 16 N/A
4:55 am 04:55 Partly Cloudy 67 19.7 60 15.8 78 78 E 12 19 29.65 1004 10 16 N/A
5:15 am 05:15 Clear 68 20.2 60 15.5 75 75 ESE 13 20 29.65 1004 10 16 N/A
5:35 am 05:35 Partly Cloudy 67 19.7 60 15.7 78 78 ESE 12 19 29.65 1004 10 16 N/A
5:55 am 05:55 Partly Cloudy 67 19.5 61 15.9 80 80 SE 9 15 29.65 1004 10 16 N/A
6:15 am 06:15 Partly Cloudy 66 19.1 61 16 82 82 ESE 7 11 29.65 1004 10 16 N/A
6:35 am 06:35 Sunny 65 18.6 61 16 85 85 E 8 13 29.65 1004 10 16 N/A
6:55 am 06:55 Sunny 65 18.3 61 16 87 87 SE 6 9 29.68 1005 10 16 N/A
7:15 am 07:15 Sunny 65 18.3 61 16.3 88 88 N N/A 29.68 1005 10 16 N/A
7:35 am 07:35 Sunny 65 18.6 62 16.9 90 90 N N/A 29.68 1005 10 16 N/A
7:55 am 07:55 Sunny 67 19.5 62 16.5 83 83 N N/A 29.68 1005 10 16 N/A
8:15 am 08:15 Sunny 69 20.6 63 17 80 80 SSE 7 11 29.71 1006 10 16 N/A
8:35 am 08:35 Sunny 68 19.9 63 17.1 84 84 N N/A 29.74 1007 10 16 N/A
8:55 am 08:55 Sunny 71 21.9 63 17.2 75 75 SW 17 28 29.71 1006 10 16 N/A
9:15 am 09:15 Mostly Cloudy 71 21.7 62 16.9 74 74 SW 12 19 29.77 1008 10 16 N/A
9:35 am 09:35 Partly Cloudy 71 21.4 63 17.2 77 77 SSW 8 13 29.77 1008 10 16 N/A
9:55 am 09:55 Partly Cloudy 72 22.4 64 17.9 76 76 S 9 15 29.74 1007 10 16 N/A
10:15 am 10:15 Partly Cloudy 74 23.3 63 17.4 70 70 S 9 15 29.74 1007 10 16 N/A
10:35 am 10:35 Partly Cloudy 74 23.4 63 17.4 69 69 SSW 7 11 29.77 1008 10 16 N/A
10:55 am 10:55 Mostly Cloudy 75 24 64 18 69 69 SW 9 15 29.77 1008 10 16 N/A
11:15 am 11:15 Mostly Cloudy 75 24 64 17.9 69 69 SSW 6 9 29.80 1009 10 16 N/A
11:35 am 11:35 Cloudy 76 24.5 64 17.7 66 66 SW 9 15 29.80 1009 10 16 N/A
11:55 am 11:55 Cloudy 77 25 65 18.3 66 66 SW 8 13 29.80 1009 10 16 N/A
12:15 pm 12:15 Partly Cloudy 78 25.7 65 18.5 65 65 SW 9 15 29.80 1009 10 16 N/A
12:35 pm 12:35 Sunny 79 26.1 65 18.6 63 63 WSW 8 13 29.77 1008 10 16 N/A
12:55 pm 12:55 Partly Cloudy 79 25.9 66 19.1 66 66 W 8 13 29.80 1009 10 16 N/A
1:15 pm 13:15 Partly Cloudy 81 27.4 66 18.9 60 60 WSW 9 15 29.77 1008 10 16 N/A
1:35 pm 13:35 Mostly Cloudy 81 27.1 66 18.7 60 60 W 7 11 29.77 1008 10 16 N/A
1:55 pm 13:55 Cloudy 82 27.5 66 18.7 59 59 W 8 13 29.77 1008 10 16 N/A
2:15 pm 14:15 Partly Cloudy 83 28.4 65 18.5 55 55 W 9 15 29.77 1008 10 16 N/A
2:35 pm 14:35 Sunny 83 28.6 64 17.8 52 52 WSW 7 11 29.77 1008 10 16 N/A
2:55 pm 14:55 Sunny 85 29.6 63 17.3 48 48 W 7 11 29.77 1008 10 16 N/A
3:15 pm 15:15 Sunny 86 30 62 16.5 44 44 WSW 3 6 29.74 1007 10 16 N/A
3:35 pm 15:35 Sunny 85 29.7 67 19.5 54 54 N 14 22 29.74 1007 10 16 N/A
3:55 pm 15:55 Partly Cloudy 86 29.9 61 16 43 43 N 10 17 29.74 1007 10 16 N/A
4:15 pm 16:15 Sunny 86 30.2 63 17.2 46 46 NNW 9 15 29.71 1006 10 16 N/A
4:35 pm 16:35 Sunny 87 30.4 62 16.7 44 44 N 9 15 29.74 1007 10 16 N/A
4:55 pm 16:55 Sunny 86 30 60 15.7 42 42 N 9 15 29.74 1007 10 16 N/A
5:15 pm 17:15 Sunny 86 30 62 16.4 44 44 N 7 11 29.74 1007 10 16 N/A
5:35 pm 17:35 Sunny 85 29.5 61 16.1 44 44 NNE 7 11 29.77 1008 10 16 N/A
5:55 pm 17:55 Sunny 85 29.2 61 16.1 45 45 N 9 15 29.77 1008 10 16 N/A
6:15 pm 18:15 Sunny 84 29 61 16.3 46 46 NNE 8 13 29.77 1008 10 16 N/A
6:35 pm 18:35 Sunny 84 28.7 62 16.4 47 47 NNE 7 11 29.77 1008 10 16 N/A
6:55 pm 18:55 Sunny 81 27 62 16.8 54 54 NNE 8 13 29.77 1008 10 16 N/A
7:15 pm 19:15 Sunny 79 26.2 64 17.5 59 59 NNE 7 11 29.77 1008 10 16 N/A
7:35 pm 19:35 Sunny 78 25.5 64 18 63 63 NNE 8 13 29.80 1009 10 16 N/A
7:55 pm 19:55 Sunny 76 24.6 64 17.9 66 66 N 14 22 29.83 1010 10 16 N/A
8:15 pm 20:15 Sunny 75 23.7 64 17.9 70 70 NNE 13 20 29.83 1010 10 16 N/A
8:35 pm 20:35 Sunny 74 23.1 64 18 73 73 NNE 9 15 29.85 1011 10 16 N/A
8:55 pm 20:55 Sunny 73 23 64 17.8 73 73 NNE 8 13 29.88 1012 10 16 N/A
9:15 pm 21:15 Clear 73 22.5 64 17.8 75 75 NE 9 15 29.88 1012 10 16 N/A
9:35 pm 21:35 Clear 71 21.9 64 17.9 78 78 NE 8 13 29.85 1011 10 16 N/A
9:55 pm 21:55 Clear 71 21.7 64 17.8 79 79 NE 7 11 29.88 1012 10 16 N/A
10:15 pm 22:15 Clear 71 21.5 64 17.6 79 79 NE 7 11 29.91 1013 10 16 N/A
10:35 pm 22:35 Clear 70 21 64 17.5 81 81 ENE 7 11 29.91 1013 10 16 N/A
10:55 pm 22:55 Clear 69 20.5 63 17.3 82 82 NE 7 11 29.91 1013 10 16 N/A
11:15 pm 23:15 Clear 68 20.2 63 17.1 82 82 NE 8 13 29.91 1013 10 16 N/A
11:35 pm 23:35 Clear 67 19.5 63 17 86 86 ENE 6 9 29.94 1014 10 16 N/A
11:55 pm 23:55 Clear 66 19 63 17 88 88 NE 5 7 29.94 1014 10 16 N/A

Powered by AerisWeather